Location: Unspecified
(42.3650°N, 71.1030°W)
Time: 16:54:28
(UTC+00:00)

Transit 4A - Pass Details

Date: 28 June 2024
Orbit: 870 x 973 km, 66.8° (Epoch: 17 July)

Event Time Altitude Azimuth Distance (km) Brightness Sun altitude
Rises 02:16:55 0° 225° (SW) 3,460 10.8 -15.7°
Reaches altitude 10° 02:19:28 10° 230° (SW) 2,518 10.1 -16.0°
Maximum altitude 02:25:06 51° 306° (NW) 1,086 8.7 -16.6°
Drops below altitude 10° 02:30:47 10° 22° (NNE) 2,528 10.6 -17.2°
Sets 02:33:22 0° 28° (NNE) 3,476 11.3 -17.4°
